contact:dominique.lefevre@mio.osupytheas.fr, maurice.libes@osupytheas.fr, didier.mallarino@osupytheas.fr
Project:EMSO http://www.emso-fr.org/EMSO-France
Depth: 2436.0 m
Title:EMSO Ligure Ouest : Data MII capteur CSTAR
DateTime,Latitude,Longitude,Instrument_Serial,Reference_Counts,Signal_Counts,Corrected_Signal_raw_counts,Calculated_Beam_c_inverse_meters,Internal_thermistor_counts
DateTime,Latitude,Longitude,Instrument_Serial,Reference_Counts,Signal_Counts,Corrected_Signal_raw_counts,Calculated_Beam_c_inverse_meters,Internal_thermistor_counts
2021-06-03T00:00:19,42.805,6.029,CST-1368DR,5533,7719,14986,0.165,551
2021-06-03T00:03:20,42.805,6.029,CST-1368DR,5533,7716,14980,0.166,551
2021-06-03T00:06:22,42.805,6.029,CST-1368DR,5533,7718,14983,0.166,551
2021-06-03T00:09:23,42.805,6.029,CST-1368DR,5533,7720,14987,0.164,551
2021-06-03T00:12:25,42.805,6.029,CST-1368DR,5533,7719,14986,0.165,551
2021-06-03T00:15:26,42.805,6.029,CST-1368DR,5533,7719,14986,0.165,551
2021-06-03T00:18:28,42.805,6.029,CST-1368DR,5533,7718,14983,0.166,551
2021-06-03T00:21:30,42.805,6.029,CST-1368DR,5533,7719,14986,0.165,551
2021-06-03T00:24:31,42.805,6.029,CST-1368DR,5533,7720,14988,0.164,551
2021-06-03T00:27:33,42.805,6.029,CST-1368DR,5533,7719,14985,0.165,551
2021-06-03T00:30:34,42.805,6.029,CST-1368DR,5534,7720,14984,0.165,551
2021-06-03T00:33:36,42.805,6.029,CST-1368DR,5534,7717,14980,0.166,551
2021-06-03T00:36:37,42.805,6.029,CST-1368DR,5534,7718,14980,0.166,551
2021-06-03T00:39:39,42.805,6.029,CST-1368DR,5534,7719,14983,0.166,551
2021-06-03T00:42:41,42.805,6.029,CST-1368DR,5534,7717,14979,0.167,551
2021-06-03T00:45:42,42.805,6.029,CST-1368DR,5534,7720,14984,0.165,551
2021-06-03T00:48:44,42.805,6.029,CST-1368DR,5533,7717,14981,0.166,551
2021-06-03T00:51:45,42.805,6.029,CST-1368DR,5533,7718,14983,0.166,551
2021-06-03T00:54:47,42.805,6.029,CST-1368DR,5533,7717,14981,0.166,551
2021-06-03T00:57:49,42.805,6.029,CST-1368DR,5533,7719,14986,0.165,551
2021-06-03T01:00:50,42.805,6.029,CST-1368DR,5534,7720,14985,0.165,551
2021-06-03T01:03:52,42.805,6.029,CST-1368DR,5534,7719,14983,0.166,551
2021-06-03T01:06:53,42.805,6.029,CST-1368DR,5533,7719,14986,0.165,551
2021-06-03T01:09:55,42.805,6.029,CST-1368DR,5533,7719,14986,0.165,550
2021-06-03T01:12:56,42.805,6.029,CST-1368DR,5534,7719,14984,0.165,551
2021-06-03T01:15:58,42.805,6.029,CST-1368DR,5534,7720,14985,0.165,551
2021-06-03T01:19:00,42.805,6.029,CST-1368DR,5533,7710,14968,0.170,551
2021-06-03T01:22:01,42.805,6.029,CST-1368DR,5534,7719,14982,0.166,551
2021-06-03T01:25:03,42.805,6.029,CST-1368DR,5534,7718,14982,0.166,551
2021-06-03T01:28:04,42.805,6.029,CST-1368DR,5534,7717,14980,0.166,551
2021-06-03T01:31:06,42.805,6.029,CST-1368DR,5534,7719,14982,0.166,551
2021-06-03T01:34:07,42.805,6.029,CST-1368DR,5534,7720,14984,0.165,551
2021-06-03T01:37:09,42.805,6.029,CST-1368DR,5534,7719,14984,0.165,551
2021-06-03T01:40:11,42.805,6.029,CST-1368DR,5534,7720,14985,0.165,551
2021-06-03T01:43:12,42.805,6.029,CST-1368DR,5534,7718,14980,0.166,551
2021-06-03T01:46:14,42.805,6.029,CST-1368DR,5534,7718,14982,0.166,551
2021-06-03T01:49:15,42.805,6.029,CST-1368DR,5534,7718,14980,0.166,551
2021-06-03T01:52:17,42.805,6.029,CST-1368DR,5534,7719,14983,0.166,551
2021-06-03T01:55:19,42.805,6.029,CST-1368DR,5534,7719,14984,0.165,551
2021-06-03T01:58:20,42.805,6.029,CST-1368DR,5534,7719,14984,0.165,551
2021-06-03T02:01:22,42.805,6.029,CST-1368DR,5534,7719,14983,0.166,551
2021-06-03T02:04:23,42.805,6.029,CST-1368DR,5534,7719,14984,0.165,550
2021-06-03T02:07:25,42.805,6.029,CST-1368DR,5534,7719,14983,0.166,551
2021-06-03T02:10:26,42.805,6.029,CST-1368DR,5534,7719,14984,0.165,551
2021-06-03T02:13:28,42.805,6.029,CST-1368DR,5534,7719,14983,0.166,551
2021-06-03T02:16:30,42.805,6.029,CST-1368DR,5534,7720,14984,0.165,551
2021-06-03T02:19:31,42.805,6.029,CST-1368DR,5534,7719,14983,0.166,551
2021-06-03T02:22:33,42.805,6.029,CST-1368DR,5534,7719,14984,0.165,551
2021-06-03T02:25:34,42.805,6.029,CST-1368DR,5533,7718,14983,0.166,551
2021-06-03T02:28:36,42.805,6.029,CST-1368DR,5534,7719,14983,0.166,551
2021-06-03T02:31:38,42.805,6.029,CST-1368DR,5534,7720,14985,0.165,551
2021-06-03T02:34:39,42.805,6.029,CST-1368DR,5534,7720,14985,0.165,551
2021-06-03T02:37:41,42.805,6.029,CST-1368DR,5534,7719,14983,0.166,551
2021-06-03T02:40:42,42.805,6.029,CST-1368DR,5534,7718,14982,0.166,551
2021-06-03T02:43:44,42.805,6.029,CST-1368DR,5533,7719,14986,0.165,551
2021-06-03T02:46:45,42.805,6.029,CST-1368DR,5533,7719,14985,0.165,551
2021-06-03T02:49:47,42.805,6.029,CST-1368DR,5533,7719,14986,0.165,551
2021-06-03T02:52:49,42.805,6.029,CST-1368DR,5533,7718,14983,0.166,551
2021-06-03T02:55:50,42.805,6.029,CST-1368DR,5533,7719,14985,0.165,551
2021-06-03T02:58:52,42.805,6.029,CST-1368DR,5533,7719,14986,0.165,551
2021-06-03T03:01:53,42.805,6.029,CST-1368DR,5533,7718,14984,0.165,551
2021-06-03T03:04:55,42.805,6.029,CST-1368DR,5533,7719,14985,0.165,551
2021-06-03T03:07:56,42.805,6.029,CST-1368DR,5533,7718,14983,0.166,551
2021-06-03T03:10:58,42.805,6.029,CST-1368DR,5533,7719,14986,0.165,551
2021-06-03T03:14:00,42.805,6.029,CST-1368DR,5533,7719,14985,0.165,551
2021-06-03T03:17:01,42.805,6.029,CST-1368DR,5533,7718,14983,0.166,551
2021-06-03T03:20:03,42.805,6.029,CST-1368DR,5533,7718,14983,0.166,551
2021-06-03T03:23:04,42.805,6.029,CST-1368DR,5533,7718,14984,0.165,551
2021-06-03T03:26:06,42.805,6.029,CST-1368DR,5533,7719,14985,0.165,551
2021-06-03T03:29:08,42.805,6.029,CST-1368DR,5533,7718,14984,0.165,551
2021-06-03T03:32:09,42.805,6.029,CST-1368DR,5533,7718,14983,0.166,551
2021-06-03T03:35:11,42.805,6.029,CST-1368DR,5533,7719,14985,0.165,551
2021-06-03T03:38:12,42.805,6.029,CST-1368DR,5533,7716,14979,0.167,551
2021-06-03T03:41:14,42.805,6.029,CST-1368DR,5533,7717,14982,0.166,551
2021-06-03T03:44:15,42.805,6.029,CST-1368DR,5533,7718,14983,0.166,551
2021-06-03T03:47:17,42.805,6.029,CST-1368DR,5533,7718,14983,0.166,551
2021-06-03T03:50:19,42.805,6.029,CST-1368DR,5533,7717,14982,0.166,551
2021-06-03T03:53:20,42.805,6.029,CST-1368DR,5533,7718,14984,0.165,551
2021-06-03T03:56:22,42.805,6.029,CST-1368DR,5533,7719,14986,0.165,551
2021-06-03T03:59:23,42.805,6.029,CST-1368DR,5533,7719,14985,0.165,551
2021-06-03T04:02:25,42.805,6.029,CST-1368DR,5533,7719,14985,0.165,551
2021-06-03T04:05:26,42.805,6.029,CST-1368DR,5533,7718,14983,0.166,551
2021-06-03T04:08:28,42.805,6.029,CST-1368DR,5533,7719,14985,0.165,551
2021-06-03T04:11:30,42.805,6.029,CST-1368DR,5533,7719,14985,0.165,551
2021-06-03T04:14:31,42.805,6.029,CST-1368DR,5533,7717,14982,0.166,551
2021-06-03T04:17:33,42.805,6.029,CST-1368DR,5533,7717,14981,0.166,551
2021-06-03T04:20:34,42.805,6.029,CST-1368DR,5533,7719,14985,0.165,551
2021-06-03T04:23:36,42.805,6.029,CST-1368DR,5533,7719,14985,0.165,551
2021-06-03T04:26:38,42.805,6.029,CST-1368DR,5533,7719,14985,0.165,551
2021-06-03T04:29:39,42.805,6.029,CST-1368DR,5533,7719,14985,0.165,551
2021-06-03T04:32:41,42.805,6.029,CST-1368DR,5533,7718,14984,0.165,551
2021-06-03T04:35:42,42.805,6.029,CST-1368DR,5533,7717,14982,0.166,551
2021-06-03T04:38:44,42.805,6.029,CST-1368DR,5533,7718,14983,0.166,551
2021-06-03T04:41:45,42.805,6.029,CST-1368DR,5533,7717,14982,0.166,551
2021-06-03T04:44:47,42.805,6.029,CST-1368DR,5533,7718,14983,0.166,551
2021-06-03T04:47:49,42.805,6.029,CST-1368DR,5533,7718,14983,0.166,551
2021-06-03T04:50:50,42.805,6.029,CST-1368DR,5533,7719,14985,0.165,551
2021-06-03T04:53:52,42.805,6.029,CST-1368DR,5533,7718,14983,0.166,551
2021-06-03T04:56:53,42.805,6.029,CST-1368DR,5533,7718,14983,0.166,551
2021-06-03T04:59:55,42.805,6.029,CST-1368DR,5533,7717,14982,0.166,551
2021-06-03T05:02:56,42.805,6.029,CST-1368DR,5533,7717,14981,0.166,551
2021-06-03T05:05:58,42.805,6.029,CST-1368DR,5533,7719,14985,0.165,551
2021-06-03T05:09:00,42.805,6.029,CST-1368DR,5533,7719,14985,0.165,551
2021-06-03T05:12:01,42.805,6.029,CST-1368DR,5533,7719,14985,0.165,551
2021-06-03T05:15:03,42.805,6.029,CST-1368DR,5533,7715,14978,0.167,551
2021-06-03T05:18:04,42.805,6.029,CST-1368DR,5533,7717,14981,0.166,551
2021-06-03T05:21:06,42.805,6.029,CST-1368DR,5533,7719,14985,0.165,551
2021-06-03T05:24:08,42.805,6.029,CST-1368DR,5533,7719,14985,0.165,551
2021-06-03T05:27:09,42.805,6.029,CST-1368DR,5533,7718,14984,0.165,551
2021-06-03T05:30:11,42.805,6.029,CST-1368DR,5533,7718,14984,0.165,550
2021-06-03T05:33:12,42.805,6.029,CST-1368DR,5533,7719,14986,0.165,551
2021-06-03T05:36:14,42.805,6.029,CST-1368DR,5533,7719,14985,0.165,551
2021-06-03T05:39:15,42.805,6.029,CST-1368DR,5533,7716,14980,0.166,551
2021-06-03T05:42:17,42.805,6.029,CST-1368DR,5533,7719,14986,0.165,551
2021-06-03T05:45:19,42.805,6.029,CST-1368DR,5533,7718,14984,0.165,551
2021-06-03T05:48:20,42.805,6.029,CST-1368DR,5533,7718,14984,0.165,551
2021-06-03T05:51:22,42.805,6.029,CST-1368DR,5533,7718,14984,0.165,551
2021-06-03T05:54:23,42.805,6.029,CST-1368DR,5533,7717,14982,0.166,551
2021-06-03T05:57:25,42.805,6.029,CST-1368DR,5533,7718,14983,0.166,551
2021-06-03T06:00:26,42.805,6.029,CST-1368DR,5533,7718,14984,0.165,551
2021-06-03T06:03:28,42.805,6.029,CST-1368DR,5533,7717,14981,0.166,551
2021-06-03T06:06:30,42.805,6.029,CST-1368DR,5533,7719,14986,0.165,551
2021-06-03T06:09:31,42.805,6.029,CST-1368DR,5533,7717,14982,0.166,551
2021-06-03T06:12:33,42.805,6.029,CST-1368DR,5533,7719,14985,0.165,551
2021-06-03T06:15:34,42.805,6.029,CST-1368DR,5533,7718,14983,0.166,551
2021-06-03T06:18:36,42.805,6.029,CST-1368DR,5533,7717,14982,0.166,551
2021-06-03T06:21:38,42.805,6.029,CST-1368DR,5533,7717,14982,0.166,551
2021-06-03T06:24:39,42.805,6.029,CST-1368DR,5533,7717,14982,0.166,551
2021-06-03T06:27:41,42.805,6.029,CST-1368DR,5533,7718,14983,0.166,551
2021-06-03T06:30:42,42.805,6.029,CST-1368DR,5533,7717,14981,0.166,550
2021-06-03T06:33:44,42.805,6.029,CST-1368DR,5533,7718,14983,0.166,551
2021-06-03T06:36:45,42.805,6.029,CST-1368DR,5533,7719,14985,0.165,551
2021-06-03T06:39:47,42.805,6.029,CST-1368DR,5533,7718,14984,0.165,551
2021-06-03T06:42:49,42.805,6.029,CST-1368DR,5533,7717,14982,0.166,551
2021-06-03T06:45:50,42.805,6.029,CST-1368DR,5533,7717,14982,0.166,551
2021-06-03T06:48:52,42.805,6.029,CST-1368DR,5533,7717,14981,0.166,551
2021-06-03T06:51:53,42.805,6.029,CST-1368DR,5533,7717,14982,0.166,551
2021-06-03T06:54:55,42.805,6.029,CST-1368DR,5533,7718,14984,0.165,551
2021-06-03T06:57:57,42.805,6.029,CST-1368DR,5533,7718,14984,0.165,551
2021-06-03T07:00:58,42.805,6.029,CST-1368DR,5533,7719,14985,0.165,551
2021-06-03T07:04:00,42.805,6.029,CST-1368DR,5533,7718,14983,0.166,551
2021-06-03T07:07:01,42.805,6.029,CST-1368DR,5533,7717,14981,0.166,551
2021-06-03T07:10:03,42.805,6.029,CST-1368DR,5533,7717,14982,0.166,551
2021-06-03T07:13:04,42.805,6.029,CST-1368DR,5533,7719,14985,0.165,551
2021-06-03T07:16:06,42.805,6.029,CST-1368DR,5533,7717,14982,0.166,551
2021-06-03T07:19:08,42.805,6.029,CST-1368DR,5533,7718,14984,0.165,551
2021-06-03T07:22:09,42.805,6.029,CST-1368DR,5533,7718,14984,0.165,551
2021-06-03T07:25:11,42.805,6.029,CST-1368DR,5533,7718,14983,0.166,550
2021-06-03T07:28:12,42.805,6.029,CST-1368DR,5533,7718,14983,0.166,551
2021-06-03T07:31:14,42.805,6.029,CST-1368DR,5533,7718,14983,0.166,551
2021-06-03T07:34:15,42.805,6.029,CST-1368DR,5533,7717,14981,0.166,551
2021-06-03T07:37:17,42.805,6.029,CST-1368DR,5533,7719,14985,0.165,551
2021-06-03T07:40:19,42.805,6.029,CST-1368DR,5533,7719,14985,0.165,551
2021-06-03T07:43:20,42.805,6.029,CST-1368DR,5533,7718,14983,0.166,551
2021-06-03T07:46:22,42.805,6.029,CST-1368DR,5533,7718,14983,0.166,551
2021-06-03T07:49:23,42.805,6.029,CST-1368DR,5533,7717,14982,0.166,551
2021-06-03T07:52:25,42.805,6.029,CST-1368DR,5533,7718,14984,0.165,551
2021-06-03T07:55:27,42.805,6.029,CST-1368DR,5533,7717,14981,0.166,551
2021-06-03T07:58:28,42.805,6.029,CST-1368DR,5533,7718,14984,0.165,551
2021-06-03T08:01:30,42.805,6.029,CST-1368DR,5533,7718,14984,0.165,551
2021-06-03T08:04:31,42.805,6.029,CST-1368DR,5533,7718,14983,0.166,551
2021-06-03T08:07:33,42.805,6.029,CST-1368DR,5533,7717,14982,0.166,551
2021-06-03T08:10:34,42.805,6.029,CST-1368DR,5533,7717,14982,0.166,551
2021-06-03T08:13:36,42.805,6.029,CST-1368DR,5533,7717,14982,0.166,551
2021-06-03T08:16:38,42.805,6.029,CST-1368DR,5533,7718,14983,0.166,551
2021-06-03T08:19:39,42.805,6.029,CST-1368DR,5533,7716,14980,0.166,551
2021-06-03T08:22:41,42.805,6.029,CST-1368DR,5533,7718,14984,0.165,551
2021-06-03T08:25:42,42.805,6.029,CST-1368DR,5533,7717,14981,0.166,551
2021-06-03T08:28:44,42.805,6.029,CST-1368DR,5533,7718,14983,0.166,551
2021-06-03T08:31:45,42.805,6.029,CST-1368DR,5533,7717,14982,0.166,551
2021-06-03T08:34:47,42.805,6.029,CST-1368DR,5533,7718,14984,0.165,551
2021-06-03T08:37:49,42.805,6.029,CST-1368DR,5533,7718,14983,0.166,551
2021-06-03T08:40:50,42.805,6.029,CST-1368DR,5533,7716,14980,0.166,551
2021-06-03T08:43:52,42.805,6.029,CST-1368DR,5533,7718,14983,0.166,551
2021-06-03T08:46:53,42.805,6.029,CST-1368DR,5533,7717,14981,0.166,551
2021-06-03T08:49:55,42.805,6.029,CST-1368DR,5533,7719,14985,0.165,551
2021-06-03T08:52:57,42.805,6.029,CST-1368DR,5533,7717,14982,0.166,551
2021-06-03T08:55:58,42.805,6.029,CST-1368DR,5533,7717,14982,0.166,551
2021-06-03T08:59:00,42.805,6.029,CST-1368DR,5533,7717,14981,0.166,551
2021-06-03T09:02:01,42.805,6.029,CST-1368DR,5533,7717,14982,0.166,551
2021-06-03T09:05:03,42.805,6.029,CST-1368DR,5533,7717,14982,0.166,551
2021-06-03T09:08:04,42.805,6.029,CST-1368DR,5533,7718,14983,0.166,551
2021-06-03T09:11:06,42.805,6.029,CST-1368DR,5533,7717,14981,0.166,551
2021-06-03T09:14:08,42.805,6.029,CST-1368DR,5533,7717,14982,0.166,551
2021-06-03T09:17:09,42.805,6.029,CST-1368DR,5533,7717,14981,0.166,551
2021-06-03T09:20:11,42.805,6.029,CST-1368DR,5533,7716,14980,0.166,551
2021-06-03T09:23:12,42.805,6.029,CST-1368DR,5533,7717,14982,0.166,551
2021-06-03T09:26:14,42.805,6.029,CST-1368DR,5533,7717,14982,0.166,551
2021-06-03T09:29:16,42.805,6.029,CST-1368DR,5533,7718,14983,0.166,551
2021-06-03T09:32:17,42.805,6.029,CST-1368DR,5532,7717,14984,0.165,551
2021-06-03T09:35:19,42.805,6.029,CST-1368DR,5532,7717,14984,0.165,551
2021-06-03T09:38:20,42.805,6.029,CST-1368DR,5532,7718,14985,0.165,551
2021-06-03T09:41:22,42.805,6.029,CST-1368DR,5532,7718,14985,0.165,551
2021-06-03T09:44:23,42.805,6.029,CST-1368DR,5532,7717,14984,0.165,550
2021-06-03T09:47:25,42.805,6.029,CST-1368DR,5532,7717,14985,0.165,551
2021-06-03T09:50:27,42.805,6.029,CST-1368DR,5532,7717,14984,0.165,551
2021-06-03T09:53:28,42.805,6.029,CST-1368DR,5532,7717,14983,0.166,551
2021-06-03T09:56:30,42.805,6.029,CST-1368DR,5532,7717,14984,0.165,551
2021-06-03T09:59:31,42.805,6.029,CST-1368DR,5532,7718,14986,0.165,551
2021-06-03T10:02:33,42.805,6.029,CST-1368DR,5532,7718,14985,0.165,551
2021-06-03T10:05:34,42.805,6.029,CST-1368DR,5532,7718,14985,0.165,551
2021-06-03T10:08:36,42.805,6.029,CST-1368DR,5532,7716,14983,0.166,551
2021-06-03T10:11:38,42.805,6.029,CST-1368DR,5532,7717,14985,0.165,551
2021-06-03T10:14:39,42.805,6.029,CST-1368DR,5532,7716,14982,0.166,551
2021-06-03T10:17:41,42.805,6.029,CST-1368DR,5532,7717,14984,0.165,551
2021-06-03T10:20:42,42.805,6.029,CST-1368DR,5532,7717,14985,0.165,551
2021-06-03T10:23:44,42.805,6.029,CST-1368DR,5532,7717,14984,0.165,551
2021-06-03T10:26:46,42.805,6.029,CST-1368DR,5532,7717,14984,0.165,551
2021-06-03T10:29:47,42.805,6.029,CST-1368DR,5532,7716,14983,0.166,551
2021-06-03T10:32:49,42.805,6.029,CST-1368DR,5532,7716,14982,0.166,551
2021-06-03T10:35:50,42.805,6.029,CST-1368DR,5532,7717,14985,0.165,549
2021-06-03T10:38:52,42.805,6.029,CST-1368DR,5532,7717,14983,0.166,551
2021-06-03T10:41:53,42.805,6.029,CST-1368DR,5532,7717,14984,0.165,551
2021-06-03T10:44:55,42.805,6.029,CST-1368DR,5532,7714,14979,0.167,551
2021-06-03T10:47:57,42.805,6.029,CST-1368DR,5532,7717,14984,0.165,551
2021-06-03T10:50:58,42.805,6.029,CST-1368DR,5532,7717,14984,0.165,551
2021-06-03T10:54:00,42.805,6.029,CST-1368DR,5532,7717,14985,0.165,551
2021-06-03T10:57:01,42.805,6.029,CST-1368DR,5532,7715,14981,0.166,551
2021-06-03T11:00:03,42.805,6.029,CST-1368DR,5532,7716,14983,0.166,551
2021-06-03T11:03:04,42.805,6.029,CST-1368DR,5532,7718,14985,0.165,551
2021-06-03T11:06:06,42.805,6.029,CST-1368DR,5532,7717,14983,0.166,551
2021-06-03T11:09:08,42.805,6.029,CST-1368DR,5532,7717,14983,0.166,551
2021-06-03T11:12:09,42.805,6.029,CST-1368DR,5532,7717,14984,0.165,551
2021-06-03T11:15:11,42.805,6.029,CST-1368DR,5532,7717,14984,0.165,551
2021-06-03T11:18:12,42.805,6.029,CST-1368DR,5532,7717,14984,0.165,551
2021-06-03T11:21:14,42.805,6.029,CST-1368DR,5532,7717,14984,0.165,551
2021-06-03T11:24:16,42.805,6.029,CST-1368DR,5532,7717,14984,0.165,551
2021-06-03T11:27:17,42.805,6.029,CST-1368DR,5532,7717,14985,0.165,551
2021-06-03T11:30:19,42.805,6.029,CST-1368DR,5532,7717,14984,0.165,550
2021-06-03T11:33:20,42.805,6.029,CST-1368DR,5532,7717,14984,0.165,551
2021-06-03T11:36:22,42.805,6.029,CST-1368DR,5532,7716,14982,0.166,551
2021-06-03T11:39:23,42.805,6.029,CST-1368DR,5532,7717,14983,0.166,551
2021-06-03T11:42:25,42.805,6.029,CST-1368DR,5532,7717,14984,0.165,551
2021-06-03T11:45:27,42.805,6.029,CST-1368DR,5532,7709,14969,0.169,551
2021-06-03T11:48:28,42.805,6.029,CST-1368DR,5532,7716,14983,0.166,551
2021-06-03T11:51:30,42.805,6.029,CST-1368DR,5532,7716,14982,0.166,551
2021-06-03T11:54:31,42.805,6.029,CST-1368DR,5532,7716,14982,0.166,551
2021-06-03T11:57:33,42.805,6.029,CST-1368DR,5532,7717,14984,0.165,551
2021-06-03T12:00:35,42.805,6.029,CST-1368DR,5532,7716,14982,0.166,551
2021-06-03T12:03:36,42.805,6.029,CST-1368DR,5532,7716,14983,0.166,551
2021-06-03T12:06:38,42.805,6.029,CST-1368DR,5531,7715,14983,0.166,551
2021-06-03T12:09:39,42.805,6.029,CST-1368DR,5531,7716,14985,0.165,551
2021-06-03T12:12:41,42.805,6.029,CST-1368DR,5531,7716,14984,0.165,551
2021-06-03T12:15:42,42.805,6.029,CST-1368DR,5531,7716,14985,0.165,551
2021-06-03T12:18:44,42.805,6.029,CST-1368DR,5531,7715,14984,0.165,551
2021-06-03T12:21:46,42.805,6.029,CST-1368DR,5531,7715,14983,0.166,551
2021-06-03T12:24:47,42.805,6.029,CST-1368DR,5531,7715,14983,0.166,551
2021-06-03T12:27:49,42.805,6.029,CST-1368DR,5531,7715,14983,0.166,551
2021-06-03T12:30:50,42.805,6.029,CST-1368DR,5531,7711,14975,0.168,551
2021-06-03T12:33:52,42.805,6.029,CST-1368DR,5531,7715,14984,0.165,551
2021-06-03T12:55:06,42.805,6.029,CST-1368DR,5531,7718,14988,0.164,551
2021-06-03T12:58:08,42.805,6.029,CST-1368DR,5531,7718,14989,0.164,551
2021-06-03T13:01:09,42.805,6.029,CST-1368DR,5531,7718,14989,0.164,551
2021-06-03T13:04:11,42.805,6.029,CST-1368DR,5531,7718,14988,0.164,551
2021-06-03T13:07:12,42.805,6.029,CST-1368DR,5531,7718,14989,0.164,551
2021-06-03T13:10:14,42.805,6.029,CST-1368DR,5531,7718,14989,0.164,551
2021-06-03T13:13:15,42.805,6.029,CST-1368DR,5531,7718,14988,0.164,551
2021-06-03T13:16:17,42.805,6.029,CST-1368DR,5531,7718,14988,0.164,551
2021-06-03T13:19:19,42.805,6.029,CST-1368DR,5531,7716,14985,0.165,551
2021-06-03T13:22:20,42.805,6.029,CST-1368DR,5531,7718,14988,0.164,551
2021-06-03T13:25:22,42.805,6.029,CST-1368DR,5531,7717,14986,0.165,551
2021-06-03T13:28:23,42.805,6.029,CST-1368DR,5531,7717,14987,0.164,551
2021-06-03T13:31:25,42.805,6.029,CST-1368DR,5531,7717,14987,0.164,551
2021-06-03T13:34:27,42.805,6.029,CST-1368DR,5531,7717,14987,0.164,551
2021-06-03T13:37:28,42.805,6.029,CST-1368DR,5531,7717,14987,0.164,551
2021-06-03T13:40:30,42.805,6.029,CST-1368DR,5531,7716,14986,0.165,551
2021-06-03T13:43:31,42.805,6.029,CST-1368DR,5531,7715,14983,0.166,551
2021-06-03T13:46:33,42.805,6.029,CST-1368DR,5531,7718,14988,0.164,551
2021-06-03T13:49:34,42.805,6.029,CST-1368DR,5531,7717,14987,0.164,551
2021-06-03T13:52:36,42.805,6.029,CST-1368DR,5531,7716,14986,0.165,551
2021-06-03T13:55:38,42.805,6.029,CST-1368DR,5531,7717,14987,0.164,551
2021-06-03T13:58:39,42.805,6.029,CST-1368DR,5531,7717,14987,0.164,551
2021-06-03T14:01:41,42.805,6.029,CST-1368DR,5530,7716,14988,0.164,551
2021-06-03T14:04:42,42.805,6.029,CST-1368DR,5530,7717,14989,0.164,551
2021-06-03T14:07:44,42.805,6.029,CST-1368DR,5531,7717,14987,0.164,551
2021-06-03T14:10:46,42.805,6.029,CST-1368DR,5531,7713,14980,0.166,551
2021-06-03T14:13:47,42.805,6.029,CST-1368DR,5530,7716,14988,0.164,551
2021-06-03T14:16:49,42.805,6.029,CST-1368DR,5530,7716,14987,0.164,551
2021-06-03T14:19:50,42.805,6.029,CST-1368DR,5530,7716,14987,0.164,551
2021-06-03T14:22:52,42.805,6.029,CST-1368DR,5531,7717,14987,0.164,551
2021-06-03T14:25:53,42.805,6.029,CST-1368DR,5530,7717,14989,0.164,551
2021-06-03T14:28:55,42.805,6.029,CST-1368DR,5530,7717,14989,0.164,551
2021-06-03T14:31:57,42.805,6.029,CST-1368DR,5530,7716,14988,0.164,551
2021-06-03T14:34:58,42.805,6.029,CST-1368DR,5531,7715,14984,0.165,551
2021-06-03T14:38:00,42.805,6.029,CST-1368DR,5530,7717,14989,0.164,551
2021-06-03T14:41:01,42.805,6.029,CST-1368DR,5530,7716,14988,0.164,551
2021-06-03T14:44:03,42.805,6.029,CST-1368DR,5530,7716,14987,0.164,551
2021-06-03T14:47:04,42.805,6.029,CST-1368DR,5530,7716,14988,0.164,551
2021-06-03T14:50:06,42.805,6.029,CST-1368DR,5530,7716,14987,0.164,551
2021-06-03T14:53:08,42.805,6.029,CST-1368DR,5530,7715,14986,0.165,551
2021-06-03T14:56:09,42.805,6.029,CST-1368DR,5530,7716,14988,0.164,551
2021-06-03T14:59:11,42.805,6.029,CST-1368DR,5530,7715,14986,0.165,551
2021-06-03T15:02:12,42.805,6.029,CST-1368DR,5530,7716,14988,0.164,551
2021-06-03T15:05:14,42.805,6.029,CST-1368DR,5530,7716,14987,0.164,551
2021-06-03T15:08:16,42.805,6.029,CST-1368DR,5530,7716,14987,0.164,551
2021-06-03T15:11:17,42.805,6.029,CST-1368DR,5530,7716,14988,0.164,551
2021-06-03T15:14:19,42.805,6.029,CST-1368DR,5530,7714,14984,0.165,551
2021-06-03T15:17:20,42.805,6.029,CST-1368DR,5530,7715,14986,0.165,551
2021-06-03T15:20:22,42.805,6.029,CST-1368DR,5530,7712,14980,0.166,551
2021-06-03T15:23:23,42.805,6.029,CST-1368DR,5530,7716,14987,0.164,551
2021-06-03T15:26:25,42.805,6.029,CST-1368DR,5530,7714,14984,0.165,551
2021-06-03T15:29:27,42.805,6.029,CST-1368DR,5530,7716,14987,0.164,551
2021-06-03T15:32:28,42.805,6.029,CST-1368DR,5530,7715,14986,0.165,551
2021-06-03T15:35:30,42.805,6.029,CST-1368DR,5530,7716,14988,0.164,551
2021-06-03T15:38:31,42.805,6.029,CST-1368DR,5530,7716,14987,0.164,551
2021-06-03T15:41:33,42.805,6.029,CST-1368DR,5530,7716,14987,0.164,551
2021-06-03T15:44:34,42.805,6.029,CST-1368DR,5530,7715,14985,0.165,551
2021-06-03T15:47:36,42.805,6.029,CST-1368DR,5530,7715,14986,0.165,551
2021-06-03T15:50:38,42.805,6.029,CST-1368DR,5530,7715,14985,0.165,551
2021-06-03T15:53:39,42.805,6.029,CST-1368DR,5530,7714,14984,0.165,551
2021-06-03T15:56:41,42.805,6.029,CST-1368DR,5530,7714,14984,0.165,551
2021-06-03T15:59:42,42.805,6.029,CST-1368DR,5530,7716,14987,0.164,551
2021-06-03T16:02:44,42.805,6.029,CST-1368DR,5530,7714,14983,0.166,551
2021-06-03T16:05:46,42.805,6.029,CST-1368DR,5530,7715,14985,0.165,551
2021-06-03T16:08:47,42.805,6.029,CST-1368DR,5529,7715,14988,0.164,551
2021-06-03T16:11:49,42.805,6.029,CST-1368DR,5529,7715,14988,0.164,551
2021-06-03T16:14:50,42.805,6.029,CST-1368DR,5529,7714,14986,0.165,551
2021-06-03T16:17:52,42.805,6.029,CST-1368DR,5529,7715,14989,0.164,550
2021-06-03T16:20:53,42.805,6.029,CST-1368DR,5529,7714,14986,0.165,551
2021-06-03T16:23:55,42.805,6.029,CST-1368DR,5529,7713,14985,0.165,551
2021-06-03T16:26:57,42.805,6.029,CST-1368DR,5529,7714,14986,0.165,551
2021-06-03T16:29:58,42.805,6.029,CST-1368DR,5529,7714,14985,0.165,551
2021-06-03T16:33:00,42.805,6.029,CST-1368DR,5529,7714,14986,0.165,551
2021-06-03T16:36:01,42.805,6.029,CST-1368DR,5529,7713,14984,0.165,551
2021-06-03T16:39:03,42.805,6.029,CST-1368DR,5529,7713,14983,0.166,551
2021-06-03T16:42:05,42.805,6.029,CST-1368DR,5529,7714,14985,0.165,551
2021-06-03T16:45:06,42.805,6.029,CST-1368DR,5529,7714,14986,0.165,551
2021-06-03T16:48:08,42.805,6.029,CST-1368DR,5529,7710,14979,0.167,551
2021-06-03T16:51:09,42.805,6.029,CST-1368DR,5529,7714,14986,0.165,551
2021-06-03T16:54:11,42.805,6.029,CST-1368DR,5529,7712,14983,0.166,551
2021-06-03T16:57:12,42.805,6.029,CST-1368DR,5529,7712,14983,0.166,551
2021-06-03T17:00:14,42.805,6.029,CST-1368DR,5529,7712,14982,0.166,551
2021-06-03T17:03:16,42.805,6.029,CST-1368DR,5529,7714,14987,0.164,550
2021-06-03T17:06:17,42.805,6.029,CST-1368DR,5529,7714,14985,0.165,551
2021-06-03T17:09:19,42.805,6.029,CST-1368DR,5529,7713,14985,0.165,551